Wind_Speed
20 22 24 25 26 26 24 21 17 18 20 22 23 18 4 8 8 14 13 7 10 7 12 5 8 9 6 8 10 6 8 9 8 5 4 4 3 2 1 2 2 2 1 7
21 22 22 24 25 26 24 20 15 13 21 20 22 11 8 7 7 14 12 14 11 7 12 6 8 12 8 11 8 9 11 7 7 3 1 2 4 1 6 8 10 9 3 5
21 22 21 23 25 26 24 19 14 12 19 16 21 10 11 13 12 12 10 9 13 12 10 8 10 10 11 8 7 8 8 9 5 6 2 5 7 8 8 11 8 13 16 17
20 22 20 23 27 29 26 13 12 13 25 17 17 13 7 14 16 15 14 9 9 13 8 6 9 8 9 7 8 8 7 9 8 8 7 9 9 11 12 14 15 15 17 9
20 22 21 24 28 31 21 13 14 12 13 19 17 16 13 12 7 10 10 6 9 11 12 12 10 8 3 5 7 9 8 6 6 5 6 8 14 13 3 2 4 9 7 8
20 21 23 24 30 28 18 11 12 17 12 25 16 13 14 14 14 8 11 11 15 15 14 16 15 14 11 9 7 9 6 4 4 3 7 12 3 4 5 8 9 9 10 10
20 21 22 24 25 25 22 17 14 18 17 20 17 15 16 11 15 12 13 12 19 18 14 13 13 13 11 11 10 10 8 7 5 5 7 1 6 9 13 14 9 12 11 17
20 19 23 22 21 21 20 14 15 12 12 16 17 13 13 14 16 15 18 20 18 18 17 14 12 12 11 12 13 12 12 9 4 4 4 13 8 6 11 8 11 16 19 22
20 19 16 18 20 17 14 13 12 11 11 16 17 16 16 19 19 18 20 18 16 16 16 14 8 6 5 6 5 11 8 7 8 7 4 6 9 5 10 14 15 18 17 19
20 18 17 15 15 14 13 12 12 12 11 17 19 16 19 20 21 18 18 16 15 14 14 13 11 10 10 7 7 8 11 10 14 13 8 9 11 17 17 11 14 14 18 27
19 18 16 15 14 14 13 12 11 11 12 11 17 19 19 17 14 16 15 15 17 16 15 13 13 11 13 13 13 10 9 6 8 10 8 9 8 12 17 19 21 22 27 32
19 17 16 16 15 15 14 12 11 11 11 8 14 19 17 19 17 14 14 16 14 13 11 14 11 12 11 16 11 14 12 14 10 12 10 21 23 21 25 26 24 28 29 33
20 18 16 15 15 15 15 14 12 11 11 12 13 16 17 18 21 19 18 16 14 17 16 15 14 15 15 16 18 17 14 17 19 17 19 21 24 30 32 31 35 29 32 31
22 19 17 16 15 14 14 15 15 14 13 14 12 14 16 17 18 18 18 18 18 18 18 18 19 20 17 22 22 23 21 23 26 28 20 24 28 29 33 35 32 34 36 33
24 22 20 18 16 15 16 16 16 16 16 7 16 18 16 18 19 19 20 20 20 20 22 23 23 23 24 29 30 31 25 27 30 37 28 26 28 30 33 33 32 35 29 22
25 23 22 21 19 19 18 17 18 18 18 19 19 15 15 19 21 21 21 21 22 23 24 25 27 26 25 23 31 32 26 23 26 29 30 29 28 27 29 31 31 27 22 21
26 25 24 23 22 21 21 20 20 20 20 20 19 20 21 19 20 21 22 21 23 24 27 29 27 26 27 33 39 34 30 28 30 32 30 28 24 27 28 24 23 23 20 20
25 25 24 24 24 24 22 21 21 19 18 20 16 12 13 15 18 21 22 25 25 29 31 33 32 31 31 35 39 35 29 23 26 29 28 26 28 25 23 22 20 19 19 22
24 23 23 22 22 21 19 20 21 22 23 22 25 24 20 21 22 21 21 22 25 28 31 32 31 33 33 36 32 32 29 28 25 21 24 27 24 22 20 19 19 19 22 28
23 24 24 24 21 20 20 21 23 26 28 31 31 28 26 23 22 20 19 20 19 20 24 22 28 39 36 30 28 30 30 25 23 25 25 24 20 18 18 17 18 23 28 31
26 26 26 24 22 21 20 18 16 18 23 30 34 33 32 31 27 25 20 15 11 16 19 18 21 34 30 25 21 23 28 28 25 26 20 16 18 17 15 17 23 28 32 34
24 27 25 23 23 17 14 14 16 17 17 21 20 19 21 28 29 25 20 23 13 11 13 10 13 19 18 14 14 14 16 21 20 18 17 15 15 15 19 24 29 33 35 33
20 21 22 13 13 14 14 17 15 14 20 16 18 17 19 18 18 15 14 12 13 15 9 11 12 13 14 14 11 10 11 13 13 10 11 14 18 21 25 30 33 34 33 34
14 15 11 11 7 10 14 14 17 20 16 17 21 21 11 18 14 14 8 11 8 7 5 4 8 12 8 3 2 3 6 6 6 12 19 22 22 26 31 33 32 33 34 34
12 6 6 10 10 10 10 14 14 14 14 15 15 16 22 15 15 9 9 5 3 4 2 8 6 4 4 4 4 2 7 13 17 20 22 24 29 32 30 30 31 31 33 33
6 6 3 0 2 5 8 9 10 9 9 10 12 15 7 9 5 5 4 5 4 2 2 7 9 2 2 6 11 13 14 17 20 23 26 29 28 29 29 28 29 31 33 32
4 5 6 5 4 4 5 5 5 6 9 11 8 6 6 4 4 5 6 3 4 7 10 12 13 13 11 11 12 15 20 22 25 27 26 27 28 27 28 30 29 30 30 30
Wind_Direction
180 181 180 180 183 184 186 182 189 190 188 186 190 187 195 221 225 195 185 168 174 180 162 166 177 194 202 181 164 164 155 149 97 142 63 38 42 172 236 211 267 110 49 255
176 177 175 175 178 180 178 172 167 184 193 192 188 176 210 230 222 176 185 173 174 163 175 150 196 194 212 188 186 154 149 134 140 158 247 35 44 294 303 272 251 255 175 243
172 174 169 169 171 171 162 161 189 188 193 181 186 184 212 181 183 181 179 211 199 168 190 193 201 212 199 186 178 164 162 154 159 169 161 252 275 272 269 295 256 265 248 270
168 171 164 164 167 163 157 157 213 222 191 171 182 183 215 205 198 197 198 194 175 183 170 190 197 219 197 193 187 189 195 182 193 216 251 265 263 284 275 263 267 283 292 288
162 168 163 162 165 162 164 166 162 180 174 169 168 195 199 210 187 219 202 177 162 193 186 182 199 231 211 203 201 203 207 213 230 264 216 244 289 300 95 52 307 279 268 271
160 164 167 164 166 168 170 156 155 170 174 190 178 191 189 196 204 214 183 184 192 200 203 196 200 209 207 238 218 222 225 246 281 260 238 303 231 184 211 257 259 277 290 281
166 159 168 172 176 184 187 180 184 185 177 176 187 202 190 227 212 201 182 206 202 204 210 214 218 226 241 245 246 249 251 258 265 263 293 355 194 256 273 252 252 241 241 260
172 171 166 171 179 186 194 204 206 202 186 186 181 180 197 202 207 208 196 201 209 220 219 222 225 231 233 234 242 238 243 241 230 252 222 282 283 224 268 261 278 264 262 253
176 177 177 177 176 182 189 194 201 205 199 189 183 198 205 207 215 199 203 212 219 218 221 225 223 217 200 216 222 230 227 226 226 228 226 225 171 276 282 279 266 266 272 272
180 181 182 185 186 189 194 199 201 202 202 194 189 194 207 212 221 224 222 220 221 229 235 232 229 221 209 217 226 221 214 227 238 243 251 262 261 251 263 254 275 280 292 297
185 186 186 188 193 196 198 202 206 207 210 202 205 204 208 214 219 224 222 219 229 237 234 237 237 233 225 228 236 237 230 235 228 210 230 265 276 271 252 286 297 293 303 306
190 193 194 197 200 203 204 207 210 212 212 207 205 219 228 219 226 235 236 234 244 225 226 233 234 230 230 242 229 240 239 251 265 248 267 293 295 279 280 291 292 295 300 310
196 197 198 202 207 209 207 210 212 215 218 215 209 214 220 226 231 245 247 255 253 243 249 251 248 249 257 247 246 235 241 249 256 263 280 287 284 285 286 288 294 294 298 306
201 204 206 210 213 214 213 215 216 217 221 223 220 222 225 231 236 241 245 250 259 262 265 266 263 262 266 259 262 259 262 257 262 264 273 279 273 274 278 283 289 296 302 304
209 211 214 217 219 219 220 221 222 222 218 227 232 232 229 231 236 240 245 248 251 255 257 261 266 264 267 272 272 267 273 272 271 279 282 280 282 281 279 283 290 297 299 298
215 218 220 222 222 223 226 227 230 232 231 235 239 239 234 237 240 243 246 251 255 258 261 263 266 272 266 267 267 283 282 280 278 279 291 288 286 281 283 284 296 292 294 288
217 219 223 226 228 230 231 233 237 238 240 242 249 257 247 245 244 248 252 257 259 262 267 265 268 271 265 267 271 287 287 285 281 282 282 285 286 281 281 282 282 288 288 300
216 219 222 226 228 231 232 235 238 239 241 243 239 239 241 254 254 257 262 261 262 263 264 266 269 269 266 267 285 289 289 276 269 277 284 275 279 279 285 287 292 290 296 304
216 219 220 223 225 227 231 236 239 242 241 244 246 247 253 255 260 262 263 265 265 267 264 267 272 271 264 283 283 283 283 279 280 274 271 278 274 280 287 290 289 295 301 307
215 220 224 225 228 234 235 238 243 246 247 249 251 254 249 256 259 261 262 266 257 256 267 272 266 271 283 288 286 281 279 275 274 251 274 268 272 284 281 282 291 298 305 312
219 224 230 234 230 229 236 238 239 244 247 257 257 254 256 256 254 255 253 254 257 266 270 253 267 273 286 288 279 271 261 266 268 269 245 258 281 279 282 288 298 307 312 312
220 222 231 237 238 235 227 228 231 238 241 242 245 249 252 250 253 250 252 249 254 254 256 236 262 278 280 277 253 245 243 247 242 257 280 272 278 280 289 302 310 311 311 311
205 224 230 216 196 201 205 207 204 214 238 247 263 259 256 254 248 231 225 220 231 243 240 241 254 266 262 243 244 247 244 257 260 263 276 283 285 290 303 309 308 307 309 310
202 215 217 205 196 210 216 217 217 224 242 255 267 269 254 239 225 220 220 217 215 206 231 235 211 211 237 272 245 290 295 287 292 300 295 283 285 297 304 305 307 310 310 311
206 215 220 217 217 220 227 238 244 247 249 247 243 228 220 218 217 210 210 197 206 207 188 134 134 43 23 1 346 274 290 299 294 285 284 288 296 302 306 309 312 312 313 313
189 200 203 197 248 257 254 255 264 272 255 241 221 218 218 212 216 195 188 176 165 130 356 6 17 32 232 260 301 312 297 286 282 286 292 298 303 305 309 313 316 317 317 317
187 205 210 202 186 185 216 231 232 229 214 204 200 194 189 169 190 185 180 164 302 324 344 350 342 336 326 308 285 273 274 281 288 294 297 301 305 309 313 315 315 316 316 315
Height
3061 3066 3071 3076 3081 3086 3094 3098 3103 3106 3110 3114 3116 3120 3123 3124 3126 3129 3131 3133 3134 3135 3136 3138 3139 3141 3143 3144 3144 3145 3147 3150 3151 3153 3154 3154 3153 3154 3155 3155 3157 3157 3158 3158
3060 3065 3069 3074 3079 3086 3092 3097 3103 3105 3108 3111 3115 3120 3121 3123 3125 3127 3130 3131 3132 3134 3136 3139 3139 3141 3142 3142 3143 3144 3146 3148 3151 3153 3155 3153 3153 3154 3153 3153 3154 3154 3157 3156
3059 3064 3068 3072 3078 3085 3092 3097 3100 3103 3106 3111 3114 3118 3120 3123 3124 3127 3129 3130 3132 3134 3135 3137 3137 3139 3140 3142 3143 3143 3145 3146 3148 3150 3151 3151 3150 3151 3151 3150 3149 3149 3149 3149
3059 3063 3067 3072 3078 3084 3091 3096 3098 3101 3103 3108 3112 3117 3119 3121 3123 3125 3127 3129 3131 3132 3134 3136 3136 3138 3139 3140 3141 3142 3144 3144 3146 3147 3148 3147 3147 3146 3146 3146 3146 3145 3145 3145
3059 3063 3068 3072 3078 3084 3090 3094 3094 3098 3102 3108 3112 3115 3118 3120 3122 3124 3126 3129 3131 3131 3133 3135 3135 3136 3137 3138 3139 3140 3141 3142 3143 3144 3143 3143 3143 3141 3140 3140 3141 3141 3141 3142
3059 3064 3069 3073 3079 3084 3088 3092 3095 3098 3102 3106 3111 3113 3117 3120 3120 3123 3125 3127 3128 3129 3131 3133 3134 3135 3136 3136 3138 3138 3139 3140 3140 3139 3140 3140 3140 3138 3138 3138 3138 3138 3137 3136
3059 3064 3069 3074 3079 3083 3088 3092 3094 3097 3102 3105 3109 3111 3116 3117 3119 3121 3122 3125 3127 3128 3131 3134 3135 3136 3136 3136 3136 3136 3137 3137 3138 3137 3137 3138 3134 3134 3133 3134 3133 3134 3132 3128
3060 3064 3068 3073 3078 3083 3087 3091 3094 3097 3100 3104 3107 3111 3112 3113 3114 3119 3121 3123 3126 3128 3129 3131 3133 3134 3134 3133 3133 3132 3134 3135 3135 3135 3135 3134 3130 3130 3130 3130 3129 3127 3126 3125
3060 3064 3068 3072 3078 3082 3086 3088 3092 3095 3099 3102 3105 3108 3110 3111 3113 3117 3119 3122 3123 3125 3126 3129 3129 3129 3130 3130 3130 3129 3131 3132 3134 3132 3133 3131 3126 3125 3125 3124 3123 3120 3120 3120
3059 3064 3068 3073 3077 3081 3084 3087 3090 3093 3096 3099 3102 3104 3107 3109 3112 3115 3118 3119 3120 3123 3123 3125 3126 3127 3127 3127 3126 3126 3128 3128 3128 3128 3128 3123 3122 3120 3121 3121 3120 3115 3116 3115
3058 3063 3067 3072 3075 3079 3082 3085 3088 3092 3095 3097 3100 3102 3104 3106 3108 3112 3115 3118 3117 3119 3121 3122 3122 3122 3123 3122 3122 3122 3124 3124 3123 3124 3124 3117 3115 3116 3117 3114 3111 3110 3108 3106
3057 3062 3066 3070 3073 3077 3081 3084 3086 3089 3093 3096 3098 3100 3103 3105 3105 3109 3111 3113 3114 3114 3116 3117 3117 3117 3117 3117 3117 3118 3119 3119 3118 3119 3115 3112 3110 3109 3108 3108 3106 3103 3101 3097
3055 3060 3064 3068 3071 3075 3079 3081 3084 3087 3091 3093 3095 3098 3101 3103 3104 3106 3108 3109 3110 3110 3112 3113 3113 3114 3114 3113 3112 3113 3113 3113 3110 3109 3108 3105 3102 3101 3100 3099 3098 3095 3094 3091
3053 3058 3062 3066 3069 3073 3076 3079 3081 3085 3088 3090 3093 3094 3097 3098 3100 3102 3104 3105 3106 3106 3108 3108 3108 3109 3108 3106 3108 3106 3110 3108 3106 3103 3105 3101 3098 3097 3095 3094 3091 3088 3085 3083
3051 3055 3060 3064 3068 3071 3073 3076 3079 3082 3087 3087 3088 3091 3093 3094 3096 3098 3099 3100 3102 3102 3102 3102 3103 3103 3103 3098 3098 3097 3101 3100 3099 3094 3096 3094 3093 3091 3089 3086 3083 3081 3079 3076
3047 3052 3057 3061 3065 3068 3070 3074 3077 3079 3082 3084 3085 3087 3087 3090 3092 3093 3094 3095 3096 3096 3096 3096 3095 3097 3097 3091 3086 3090 3092 3093 3089 3087 3086 3086 3086 3084 3082 3078 3076 3073 3072 3068
3044 3049 3053 3058 3061 3064 3067 3072 3074 3075 3078 3080 3081 3080 3083 3086 3086 3087 3089 3091 3090 3090 3089 3087 3089 3090 3088 3082 3079 3085 3086 3085 3081 3079 3079 3078 3077 3076 3074 3072 3069 3067 3065 3063
3040 3045 3049 3053 3056 3059 3063 3067 3069 3072 3074 3075 3075 3075 3079 3081 3081 3083 3084 3084 3085 3083 3081 3079 3080 3081 3080 3073 3074 3075 3076 3076 3073 3071 3071 3072 3070 3067 3065 3063 3061 3061 3059 3058
3037 3041 3045 3048 3052 3056 3060 3063 3064 3066 3071 3067 3067 3071 3074 3075 3076 3078 3079 3078 3078 3076 3073 3074 3073 3068 3066 3069 3068 3067 3067 3066 3065 3066 3064 3063 3062 3061 3059 3058 3056 3056 3054 3051
3033 3037 3041 3044 3050 3053 3056 3058 3059 3060 3060 3058 3061 3065 3067 3071 3071 3073 3075 3071 3071 3066 3065 3066 3061 3055 3058 3061 3060 3058 3058 3058 3059 3057 3055 3054 3054 3054 3054 3053 3052 3050 3047 3043
3028 3031 3036 3041 3046 3049 3051 3053 3053 3053 3051 3050 3051 3057 3060 3062 3065 3066 3067 3064 3063 3060 3059 3060 3052 3046 3050 3052 3052 3051 3051 3050 3050 3049 3047 3048 3049 3049 3049 3048 3047 3043 3039 3035
3025 3028 3033 3037 3040 3043 3045 3043 3044 3043 3044 3042 3044 3048 3051 3053 3056 3059 3059 3059 3059 3053 3050 3050 3044 3044 3043 3044 3044 3043 3043 3044 3044 3044 3045 3046 3046 3045 3044 3041 3038 3035 3031 3027
3021 3025 3029 3031 3031 3032 3033 3032 3032 3034 3035 3037 3040 3044 3047 3048 3050 3051 3050 3049 3047 3045 3044 3041 3040 3040 3040 3039 3039 3040 3040 3041 3042 3042 3042 3042 3041 3039 3037 3034 3031 3027 3023 3019
3020 3023 3024 3025 3025 3025 3025 3027 3028 3031 3033 3035 3037 3039 3040 3040 3043 3042 3040 3040 3039 3039 3038 3037 3037 3037 3036 3036 3037 3038 3039 3039 3039 3040 3040 3037 3035 3033 3030 3026 3022 3019 3015 3011
3017 3020 3020 3020 3021 3022 3023 3024 3026 3028 3029 3031 3033 3035 3036 3035 3036 3034 3034 3034 3035 3036 3036 3035 3035 3035 3035 3036 3036 3036 3037 3037 3036 3035 3033 3031 3028 3026 3023 3019 3015 3010 3007 3002
3015 3017 3018 3020 3020 3021 3022 3023 3023 3024 3025 3026 3029 3030 3031 3030 3031 3031 3030 3032 3032 3033 3032 3032 3033 3034 3035 3035 3034 3033 3032 3032 3030 3028 3026 3023 3020 3018 3015 3011 3007 3002 2998 2994
3013 3015 3016 3017 3019 3020 3021 3021 3023 3023 3024 3025 3027 3027 3027 3028 3029 3030 3030 3029 3029 3029 3030 3030 3030 3031 3032 3031 3030 3029 3028 3026 3024 3022 3019 3016 3013 3009 3006 3003 2999 2995 2990 2986